[[{"header":{"parameterUnit":"m.s-1","parameterCategory":1,"la1":30.2991,"la2":30.254,"lo1":-89.0895,"lo2":-89.0444,"dy":0.0017,"dx":0.0017,"nx":28,"ny":28,"refTime":"2024-04-19T03:00:00:Z","depth":0,"parameterNumber":2,"parameterNumberName":"U-component_of_WINDS"},"data":[0,0,0,0,0,0,0,0,0,0,0,0,0,0,0,0,0,0,0,0,0,0,0,0,0,0,0,0,0,0,0,0,0,0,0,0,0,0,0,0,0,0,0,0,0,0,0,0,0,0,0,0,0,0,0,0,0,0,-0.8755,-0.8755,0,-0.8694,-0.8694,-0.8693,-0.8645,-0.8644,-0.8644,-0.8643,-0.858,-0.8579,-0.8577,0,0,0,0,0,0,0,0,0,0,0,0,0,-0.8829,-0.8828,-0.8755,-0.8754,-0.8754,-0.8694,-0.8694,-0.8693,-0.8645,-0.8644,-0.8643,-0.8643,-0.858,-0.8579,-0.8577,0,0,0,0,0,0,0,0,0,0,0,0,0,-0.8786,-0.8828,-0.8755,-0.8723,-0.8719,-0.8695,-0.8694,-0.8693,-0.8645,-0.8644,-0.8643,-0.8643,-0.8581,-0.8579,-0.8577,-0.858,0,0,-0.8571,-0.857,0,0,0,0,0,0,0,0,-0.8788,-0.8783,-0.8728,-0.8725,-0.8721,-0.8676,-0.8696,-0.8655,-0.8645,-0.8673,-0.8643,-0.8642,-0.8612,-0.8608,-0.8598,-0.8577,-0.8574,-0.8571,-0.857,-0.8569,-0.8569,0,0,0,0,0,0,0,-0.8791,-0.8785,-0.8731,-0.8727,-0.8723,-0.8711,-0.8704,-0.8688,-0.8647,-0.867,-0.8667,-0.866,-0.861,-0.86,-0.8596,-0.8573,-0.8571,-0.857,-0.8568,-0.8568,-0.8552,-0.8552,0,0,0,0,0,0,-0.8799,-0.8788,-0.8733,-0.8729,-0.8753,-0.871,-0.8702,-0.8691,-0.8647,-0.864,-0.8661,-0.8658,-0.8603,-0.8598,-0.8594,-0.8594,-0.8569,-0.8567,-0.8566,-0.8551,-0.8552,-0.8552,0,0,0,0,0,0,-0.8801,-0.8795,-0.8735,-0.8758,-0.8749,-0.8709,-0.8698,-0.869,-0.868,-0.864,-0.8633,-0.8658,-0.8603,-0.8596,-0.8584,-0.8592,-0.8567,-0.8565,-0.855,-0.8551,-0.8552,-0.8596,0,0,0,0,0,0,-0.8803,-0.8796,-0.8797,-0.8758,-0.8748,-0.8727,-0.8698,-0.869,-0.8677,-0.8673,-0.8635,-0.8629,-0.8602,-0.8587,-0.8582,-0.8589,-0.8563,-0.8549,-0.8551,-0.8552,-0.8594,-0.8598,-0.8602,0,0,0,0,0,-0.8806,-0.8811,-0.8797,-0.8791,-0.8748,-0.8728,-0.8722,-0.8691,-0.8678,-0.8678,-0.8653,-0.863,-0.8592,-0.8586,-0.858,-0.8586,-0.8549,-0.855,-0.8552,-0.8592,-0.8597,-0.8602,0,0,0,0,0,0,-0.8851,-0.8805,-0.8789,-0.8782,-0.8759,-0.8719,-0.8719,-0.8698,-0.8678,-0.8675,-0.8637,-0.8629,-0.8621,-0.8602,-0.8597,-0.8587,-0.8567,-0.8567,-0.8599,-0.8605,-0.8609,-0.8614,-0.8562,0,0,0,0,0,-0.8861,-0.8848,-0.8808,-0.8805,-0.8795,-0.8759,-0.8749,-0.8727,-0.8702,-0.8692,-0.8665,-0.8641,-0.8624,-0.8613,-0.8595,-0.8591,-0.8582,-0.8592,-0.8596,-0.86,-0.8601,-0.8598,-0.8602,-0.8558,-0.8558,-0.8558,0,0,-0.8879,-0.8852,-0.8847,-0.8814,-0.8793,-0.8781,-0.8751,-0.8739,-0.8729,-0.869,-0.8676,-0.8656,-0.8627,-0.8619,-0.8614,-0.8603,-0.8611,-0.8602,-0.8605,-0.8604,-0.86,-0.8604,-0.8608,-0.8559,-0.8558,-0.8558,0,0,-0.8907,-0.8885,-0.8881,-0.8861,-0.8831,-0.8807,-0.8807,-0.877,-0.8755,-0.8741,-0.8712,-0.8699,-0.867,-0.865,-0.8637,-0.8657,-0.8635,-0.8652,-0.8675,-0.8673,-0.8676,-0.8679,-0.8687,-0.869,-0.8653,-0.8653,-0.8654,0,-0.8934,-0.8914,-0.8881,-0.8871,-0.8857,-0.8821,-0.8817,-0.8799,-0.8765,-0.8756,-0.8744,-0.8707,-0.8685,-0.8672,-0.8677,-0.8667,-0.8664,-0.8657,-0.8678,-0.8681,-0.8683,-0.869,-0.8693,-0.8656,-0.8655,-0.8655,-0.8655,0,-0.8948,-0.8935,-0.8935,-0.8903,-0.889,-0.8882,-0.8848,-0.8838,-0.8818,-0.8795,-0.8782,-0.8754,-0.873,-0.8725,-0.8704,-0.8709,-0.8703,-0.8685,-0.8665,-0.869,-0.8696,-0.8698,-0.8659,-0.8658,-0.8658,-0.8657,0,0,-0.9003,-0.8953,-0.8954,-0.8939,-0.8903,-0.8892,-0.8883,-0.886,-0.8852,-0.8829,-0.8821,-0.8797,-0.878,-0.8765,-0.8742,-0.874,-0.8758,-0.8722,-0.8721,-0.873,-0.8762,-0.8775,-0.8779,-0.8743,-0.8744,-0.8744,-0.8764,0,-0.9025,-0.9007,-0.8978,-0.8969,-0.8956,-0.8922,-0.8914,-0.8892,-0.887,-0.8856,-0.8832,-0.8816,-0.8796,-0.8786,-0.8782,-0.8757,-0.8764,-0.8755,-0.8735,-0.8735,-0.8744,-0.8782,-0.8796,-0.8817,-0.8766,-0.8767,-0.8767,0,-0.9048,-0.9028,-0.9019,-0.8984,-0.8978,-0.8971,-0.8948,-0.8935,-0.8908,-0.8893,-0.8876,-0.8851,-0.884,-0.8821,-0.8804,-0.8799,-0.8789,-0.8775,-0.8775,-0.8772,-0.8753,-0.878,-0.8822,-0.8826,-0.877,-0.877,-0.8769,0,-0.909,-0.906,-0.9051,-0.9039,-0.8998,-0.8995,-0.8977,-0.895,-0.8938,-0.8917,-0.8909,-0.8887,-0.8875,-0.8858,-0.8828,-0.8817,-0.8815,-0.8794,-0.8802,-0.8803,-0.8803,-0.8804,-0.8845,-0.8797,-0.8797,-0.8797,-0.8797,0,-0.9118,-0.9113,-0.9069,-0.9063,-0.9057,-0.9023,-0.9018,-0.8998,-0.8974,-0.8963,-0.8932,-0.8923,-0.8884,-0.887,-0.8846,-0.8836,-0.8831,-0.8818,-0.8812,-0.8821,-0.8823,-0.8814,-0.8812,-0.8797,-0.8797,-0.8797,-0.8797,0,-0.9163,-0.9132,-0.912,-0.9083,-0.9073,-0.9071,-0.9039,-0.9032,-0.9009,-0.8996,-0.8991,-0.8955,-0.8937,-0.8905,-0.8878,-0.8862,-0.8857,-0.8846,-0.8867,-0.8863,-0.8873,-0.8873,-0.891,-0.8913,-0.8863,-0.8864,-0.8864,0,-0.9183,-0.9179,-0.9141,-0.9132,-0.9116,-0.9102,-0.909,-0.9056,-0.9044,-0.9014,-0.9011,-0.8991,-0.8973,-0.8946,-0.8917,-0.8896,-0.8885,-0.8899,-0.8881,-0.8891,-0.8885,-0.8886,-0.8886,-0.8903,-0.8904,-0.8905,-0.8905,0,-0.9222,-0.9207,-0.9191,-0.9169,-0.9155,-0.9137,-0.9116,-0.9111,-0.9072,-0.9061,-0.9043,-0.9029,-0.9001,-0.8982,-0.8957,-0.8939,-0.8916,-0.8911,-0.8912,-0.8921,-0.8933,-0.8927,-0.8878,-0.891,-0.891,-0.891,-0.8909,-0.8909,-0.9255,-0.925,-0.9223,-0.9206,-0.9187,-0.9169,-0.9161,-0.9137,-0.9121,-0.9096,-0.9077,-0.9061,-0.9034,-0.8998,-0.8982,-0.8968,-0.8957,-0.8958,-0.8958,-0.8959,-0.8963,-0.8936,-0.8963,-0.8963,-0.8963,-0.8962,-0.8962,0,-0.9292,-0.9273,-0.9258,-0.9231,-0.9217,-0.9197,-0.9174,-0.9164,-0.915,-0.9127,-0.911,-0.9089,-0.907,-0.904,-0.9018,-0.9013,-0.9002,-0.9009,-0.9009,-0.9005,-0.8974,-0.8975,-0.9018,-0.9018,-0.9018,-0.9018,-0.9018,-0.9018,-0.9311,-0.9301,-0.9283,-0.9264,-0.9245,-0.9229,-0.9217,-0.92,-0.9182,-0.916,-0.9144,-0.9125,-0.9099,-0.9075,-0.9057,-0.9049,-0.9042,-0.9052,-0.9041,-0.9012,-0.9007,-0.9002,-0.9003,-0.9051,-0.9051,-0.9073,-0.9073,-0.9073]},{"header":{"parameterUnit":"m.s-1","parameterCategory":1,"la1":30.2991,"la2":30.254,"lo1":-89.0895,"lo2":-89.0444,"dy":0.0017,"dx":0.0017,"nx":28,"ny":28,"refTime":"2024-04-19T03:00:00:Z","depth":0,"parameterNumber":3,"parameterNumberName":"V-component_of_WINDS"},"data":[0,0,0,0,0,0,0,0,0,0,0,0,0,0,0,0,0,0,0,0,0,0,0,0,0,0,0,0,0,0,0,0,0,0,0,0,0,0,0,0,0,0,0,0,0,0,0,0,0,0,0,0,0,0,0,0,0,0,0.1228,0.1228,0,0.1223,0.1223,0.1223,0.1241,0.1241,0.1242,0.1242,0.1234,0.1234,0.1233,0,0,0,0,0,0,0,0,0,0,0,0,0,0.1248,0.1247,0.1228,0.1228,0.1227,0.1223,0.1223,0.1223,0.124,0.1241,0.1242,0.1242,0.1235,0.1234,0.1233,0,0,0,0,0,0,0,0,0,0,0,0,0,0.1241,0.1247,0.1228,0.1236,0.1236,0.1223,0.1223,0.1223,0.124,0.1241,0.1242,0.1243,0.1235,0.1234,0.1233,0.121,0,0,0.123,0.1229,0,0,0,0,0,0,0,0,0.1241,0.124,0.1235,0.1235,0.1236,0.1233,0.1227,0.1219,0.124,0.1239,0.1242,0.1243,0.1233,0.1232,0.123,0.121,0.121,0.1229,0.1229,0.1228,0.1228,0,0,0,0,0,0,0,0.1242,0.124,0.1226,0.1234,0.1235,0.1239,0.1238,0.1226,0.1231,0.1239,0.124,0.124,0.1234,0.1231,0.123,0.121,0.1229,0.1229,0.1228,0.1227,0.1171,0.117,0,0,0,0,0,0,0.1241,0.1241,0.1226,0.1226,0.1241,0.1238,0.1237,0.1233,0.1232,0.1232,0.1239,0.124,0.1232,0.1231,0.1229,0.1203,0.1228,0.1227,0.1227,0.1172,0.1171,0.117,0,0,0,0,0,0,0.1242,0.124,0.1226,0.1233,0.1232,0.1236,0.1232,0.1233,0.123,0.1232,0.1232,0.1235,0.1233,0.1231,0.1215,0.1203,0.1227,0.1226,0.1173,0.1171,0.117,0.115,0,0,0,0,0,0,0.1242,0.124,0.1232,0.1233,0.1232,0.1213,0.1231,0.1232,0.1228,0.123,0.1228,0.1229,0.1233,0.1217,0.1214,0.1202,0.1225,0.1174,0.1172,0.1171,0.1151,0.1148,0.1145,0,0,0,0,0,0.1243,0.1226,0.1232,0.123,0.1222,0.1212,0.1211,0.1217,0.1227,0.1219,0.122,0.1229,0.1205,0.1215,0.1212,0.1199,0.1175,0.1173,0.1171,0.1153,0.1149,0.1145,0,0,0,0,0,0,0.1223,0.1227,0.1233,0.1216,0.1214,0.1215,0.1205,0.1213,0.1207,0.1209,0.1216,0.1215,0.1198,0.1197,0.1208,0.1177,0.1191,0.1188,0.1179,0.1174,0.1171,0.1171,0.1224,0,0,0,0,0,0.1217,0.1209,0.1212,0.1197,0.1196,0.1201,0.1197,0.1202,0.1199,0.1198,0.1198,0.1194,0.1186,0.118,0.1172,0.1151,0.1151,0.1141,0.1138,0.1135,0.1133,0.1121,0.1116,0.1163,0.1163,0.1163,0,0,0.1204,0.1205,0.1199,0.1193,0.1192,0.1183,0.12,0.119,0.1183,0.1196,0.1182,0.1181,0.1177,0.1159,0.1151,0.1158,0.1119,0.1132,0.113,0.1129,0.1118,0.1114,0.111,0.1162,0.1162,0.1162,0,0,0.1175,0.1175,0.1163,0.1161,0.116,0.1163,0.116,0.116,0.1161,0.1146,0.1156,0.1147,0.1133,0.113,0.1126,0.1096,0.1103,0.1093,0.1075,0.1063,0.106,0.1056,0.1045,0.1041,0.109,0.109,0.109,0,0.1159,0.1147,0.1155,0.1144,0.1141,0.1153,0.114,0.1138,0.1133,0.113,0.1138,0.112,0.1118,0.1099,0.1092,0.1088,0.1084,0.1093,0.106,0.1057,0.1054,0.1043,0.1039,0.1089,0.1089,0.1089,0.109,0,0.1126,0.1118,0.1107,0.1104,0.1099,0.1087,0.1092,0.1087,0.1092,0.1094,0.1079,0.1077,0.1069,0.1065,0.107,0.1046,0.105,0.1059,0.1073,0.1048,0.1038,0.1034,0.1087,0.1088,0.1088,0.1088,0,0,0.1085,0.1086,0.1082,0.1081,0.1079,0.1072,0.106,0.1054,0.1048,0.1044,0.1034,0.1021,0.1029,0.1025,0.1029,0.1019,0.0995,0.1029,0.1029,0.1022,0.0967,0.0961,0.0956,0.0999,0.0999,0.0998,0.0968,0,0.1057,0.1038,0.1045,0.1024,0.1016,0.1028,0.1017,0.1014,0.1016,0.1008,0.1009,0.1,0.1011,0.1009,0.0999,0.1,0.0984,0.1002,0.0989,0.0988,0.0989,0.0951,0.0944,0.0915,0.0964,0.0963,0.0963,0,0.1022,0.1017,0.0997,0.0997,0.0993,0.0984,0.0978,0.0971,0.0968,0.0969,0.0965,0.0971,0.0958,0.0972,0.0954,0.0966,0.0961,0.096,0.0959,0.0958,0.0974,0.0948,0.0906,0.0902,0.0957,0.0957,0.0958,0,0.0993,0.0982,0.0968,0.0967,0.0966,0.0959,0.0959,0.0956,0.0952,0.0946,0.0943,0.0935,0.0931,0.0924,0.0928,0.0938,0.0908,0.0923,0.0909,0.0908,0.0902,0.0902,0.0858,0.0899,0.0899,0.0899,0.0899,0,0.0961,0.0948,0.0956,0.0947,0.0932,0.094,0.0924,0.0925,0.0923,0.0913,0.0922,0.0913,0.0919,0.091,0.0912,0.0896,0.0894,0.0894,0.0895,0.0893,0.0893,0.089,0.0892,0.0898,0.0898,0.0898,0.0898,0,0.0927,0.0932,0.0917,0.0918,0.0918,0.0907,0.0907,0.0899,0.0901,0.0889,0.0887,0.0889,0.0879,0.0882,0.0871,0.0872,0.0852,0.0855,0.0853,0.0854,0.0839,0.084,0.0791,0.0785,0.083,0.0829,0.0829,0,0.0906,0.0896,0.0896,0.0891,0.089,0.0882,0.0877,0.0884,0.0878,0.0874,0.0866,0.0856,0.085,0.0832,0.0832,0.0824,0.0827,0.081,0.0825,0.0824,0.0826,0.0826,0.0825,0.0807,0.0806,0.0806,0.0805,0,0.0868,0.0871,0.0864,0.0859,0.0853,0.0849,0.0845,0.084,0.0846,0.0839,0.083,0.0824,0.0813,0.0803,0.0795,0.0793,0.08,0.0801,0.0797,0.0795,0.0794,0.0794,0.0845,0.0802,0.0802,0.0802,0.0803,0.0803,0.0839,0.0831,0.083,0.0822,0.082,0.0816,0.0809,0.081,0.0802,0.0794,0.0798,0.0787,0.0783,0.0773,0.0769,0.076,0.0766,0.076,0.0759,0.0757,0.0755,0.0796,0.0758,0.0758,0.0758,0.0758,0.0758,0,0.0801,0.0801,0.0794,0.0789,0.0783,0.0791,0.0787,0.0781,0.0771,0.0768,0.0761,0.0749,0.0739,0.0739,0.073,0.0722,0.0725,0.0719,0.072,0.0719,0.075,0.0755,0.0717,0.0717,0.0717,0.0717,0.0717,0.0717,0.0781,0.0767,0.077,0.0755,0.0754,0.0744,0.0741,0.0737,0.0734,0.0721,0.0714,0.0714,0.0711,0.0702,0.0693,0.0693,0.0689,0.0682,0.0683,0.0713,0.0717,0.0721,0.0725,0.0681,0.0681,0.0652,0.0652,0.0652]}]]